,,,PA_Meas_PMT16A,,PR_Meas_QMR101_102,,RH_Meas_QMH101,,SR_Meas_QMS101,,TA_Meas_QMH101,,GenWind,,GenWind,
date,time,status,PA,status,PR,status,RH,status,SR,status,TA,status,DirAvg,status,SpdAvg,
2011-08-13, 00:00:04,VALID,1003.85,VALID,0,INVALID,163.708,VALID,0,VALID,24.0132,VALID,49,VALID,0,
2011-08-13, 00:01:04,VALID,1003.86,VALID,0,INVALID,163.746,VALID,0.100563,VALID,24.0132,VALID,49,VALID,0,
2011-08-13, 00:02:04,VALID,1003.85,VALID,0,INVALID,163.716,VALID,0,VALID,24.0132,VALID,49,VALID,0,
2011-08-13, 00:03:04,VALID,1003.81,VALID,0,INVALID,163.731,VALID,0.100563,VALID,24.0132,VALID,49,VALID,0,
2011-08-13, 00:04:04,VALID,1003.81,VALID,0,INVALID,163.731,VALID,0.100563,VALID,24.0132,VALID,49,VALID,0,
2011-08-13, 00:05:04,VALID,1003.81,VALID,0,INVALID,163.708,VALID,0.100563,VALID,23.9919,VALID,49,VALID,0,
2011-08-13, 00:06:04,VALID,1003.82,VALID,0,INVALID,163.716,VALID,0,VALID,23.9724,VALID,49,VALID,0,
2011-08-13, 00:07:04,VALID,1003.81,VALID,0,INVALID,163.739,VALID,0.100563,VALID,23.9937,VALID,49,VALID,0,
2011-08-13, 00:08:04,VALID,1003.83,VALID,0,INVALID,163.723,VALID,0,VALID,23.9937,VALID,49,VALID,0,
2011-08-13, 00:09:04,VALID,1003.82,VALID,0,INVALID,163.723,VALID,0.100563,VALID,23.953,VALID,49,VALID,0,
2011-08-13, 00:10:04,VALID,1003.84,VALID,0,INVALID,163.739,VALID,0.100563,VALID,23.9955,VALID,49,VALID,0,
2011-08-13, 00:11:04,VALID,1003.8,VALID,0,INVALID,163.731,VALID,0.100563,VALID,23.9317,VALID,49,VALID,0,
2011-08-13, 00:12:04,VALID,1003.81,VALID,0,INVALID,163.754,VALID,0.100563,VALID,23.9724,VALID,49,VALID,0,
2011-08-13, 00:13:04,VALID,1003.78,VALID,0,INVALID,163.723,VALID,0,VALID,23.9742,VALID,49,VALID,0,
2011-08-13, 00:14:04,VALID,1003.77,VALID,0,INVALID,163.723,VALID,0.100563,VALID,23.9937,VALID,49,VALID,0,
2011-08-13, 00:15:04,VALID,1003.75,VALID,0,INVALID,163.701,VALID,0,VALID,23.9955,VALID,49,VALID,0,
2011-08-13, 00:16:04,VALID,1003.7,VALID,0,INVALID,163.731,VALID,0,VALID,23.9937,VALID,49,VALID,0,
2011-08-13, 00:17:04,VALID,1003.73,VALID,0,INVALID,163.754,VALID,0,VALID,24.015,VALID,49,VALID,0,
2011-08-13, 00:18:04,VALID,1003.71,VALID,0,INVALID,163.739,VALID,0,VALID,23.9937,VALID,49,VALID,0,
2011-08-13, 00:19:04,VALID,1003.73,VALID,0,INVALID,163.731,VALID,0,VALID,23.9937,VALID,49,VALID,0,
2011-08-13, 00:20:04,VALID,1003.68,VALID,0,INVALID,163.716,VALID,0,VALID,24.0168,VALID,49,VALID,0,
2011-08-13, 00:21:04,VALID,1003.71,VALID,0,INVALID,163.8,VALID,0,VALID,24.015,VALID,49,VALID,0,
2011-08-13, 00:22:04,VALID,1003.71,VALID,0,INVALID,163.754,VALID,0,VALID,24.015,VALID,49,VALID,0,
2011-08-13, 00:23:04,VALID,1003.66,VALID,0,INVALID,163.701,VALID,0,VALID,23.9937,VALID,49,VALID,0,
2011-08-13, 00:24:04,VALID,1003.66,VALID,0,INVALID,163.716,VALID,0,VALID,24.0345,VALID,49,VALID,0,
2011-08-13, 00:25:04,VALID,1003.66,VALID,0,INVALID,163.701,VALID,0,VALID,24.0132,VALID,49,VALID,0,
2011-08-13, 00:26:04,VALID,1003.63,VALID,0,INVALID,163.723,VALID,0,VALID,24.0326,VALID,49,VALID,0,
2011-08-13, 00:27:04,VALID,1003.65,VALID,0,INVALID,163.716,VALID,0,VALID,24.0539,VALID,72,VALID,0,
2011-08-13, 00:28:04,VALID,1003.64,VALID,0,INVALID,163.701,VALID,0,VALID,24.0734,VALID,72,VALID,0,
2011-08-13, 00:29:04,VALID,1003.65,VALID,0,INVALID,163.716,VALID,0,VALID,24.0734,VALID,72,VALID,0,
2011-08-13, 00:30:04,VALID,1003.62,VALID,0,INVALID,163.739,VALID,0,VALID,24.0929,VALID,72,VALID,0,
2011-08-13, 00:31:04,VALID,1003.61,VALID,0,INVALID,163.731,VALID,0,VALID,24.091,VALID,72,VALID,0,
2011-08-13, 00:32:04,VALID,1003.58,VALID,0,INVALID,163.723,VALID,0,VALID,24.1318,VALID,72,VALID,0,
2011-08-13, 00:33:04,VALID,1003.6,VALID,0,INVALID,163.716,VALID,0,VALID,24.1105,VALID,72,VALID,0,
2011-08-13, 00:34:04,VALID,1003.57,VALID,0,INVALID,163.708,VALID,0,VALID,24.1513,VALID,72,VALID,0,
2011-08-13, 00:35:04,VALID,1003.59,VALID,0,INVALID,163.701,VALID,0,VALID,24.1902,VALID,72,VALID,0,
2011-08-13, 00:36:04,VALID,1003.57,VALID,0,INVALID,163.731,VALID,0,VALID,24.2097,VALID,72,VALID,0,
2011-08-13, 00:37:04,VALID,1003.57,VALID,0,INVALID,163.701,VALID,0,VALID,24.2291,VALID,72,VALID,0,
2011-08-13, 00:38:04,VALID,1003.57,VALID,0,INVALID,163.716,VALID,0,VALID,24.2681,VALID,72,VALID,0,
2011-08-13, 00:39:04,VALID,1003.56,VALID,0,INVALID,163.701,VALID,0,VALID,24.2468,VALID,72,VALID,0,
2011-08-13, 00:40:04,VALID,1003.55,VALID,0,INVALID,163.708,VALID,0,VALID,24.2662,VALID,72,VALID,0,
2011-08-13, 00:41:04,VALID,1003.56,VALID,0,INVALID,163.693,VALID,0,VALID,24.2662,VALID,84,VALID,0,
2011-08-13, 00:42:04,VALID,1003.55,VALID,0,INVALID,163.723,VALID,0,VALID,24.307,VALID,84,VALID,0,
2011-08-13, 00:43:04,VALID,1003.54,VALID,0,INVALID,163.708,VALID,0,VALID,24.2662,VALID,84,VALID,0,
2011-08-13, 00:44:04,VALID,1003.5,VALID,0,INVALID,163.731,VALID,0,VALID,24.2681,VALID,84,VALID,0,
2011-08-13, 00:45:04,VALID,1003.5,VALID,0,INVALID,163.708,VALID,0,VALID,24.2662,VALID,84,VALID,0,
2011-08-13, 00:46:04,VALID,1003.49,VALID,0,INVALID,163.708,VALID,0.100563,VALID,24.2468,VALID,84,VALID,0,
2011-08-13, 00:47:04,VALID,1003.51,VALID,0,INVALID,163.701,VALID,0.100563,VALID,24.2255,VALID,84,VALID,0,
2011-08-13, 00:48:04,VALID,1003.51,VALID,0,INVALID,163.701,VALID,0.100563,VALID,24.2255,VALID,84,VALID,0,
2011-08-13, 00:49:04,VALID,1003.49,VALID,0,INVALID,163.708,VALID,0,VALID,24.2468,VALID,84,VALID,0,
2011-08-13, 00:50:04,VALID,1003.47,VALID,0,INVALID,163.685,VALID,0,VALID,24.2662,VALID,84,VALID,0,
2011-08-13, 00:51:04,VALID,1003.46,VALID,0,INVALID,163.701,VALID,0.100563,VALID,24.2644,VALID,84,VALID,0,
2011-08-13, 00:52:04,VALID,1003.48,VALID,0,INVALID,163.693,VALID,0.100563,VALID,24.2644,VALID,84,VALID,0,
2011-08-13, 00:53:04,VALID,1003.45,VALID,0,INVALID,163.693,VALID,0.100563,VALID,24.2644,VALID,84,VALID,0,
2011-08-13, 00:54:04,VALID,1003.46,VALID,0,INVALID,163.693,VALID,0.100563,VALID,24.2644,VALID,84,VALID,0,
2011-08-13, 00:55:04,VALID,1003.41,VALID,0,INVALID,163.701,VALID,0.100563,VALID,24.3052,VALID,84,VALID,0,
2011-08-13, 00:56:04,VALID,1003.38,VALID,0,INVALID,163.708,VALID,0.100563,VALID,24.3052,VALID,84,VALID,0,
2011-08-13, 00:57:04,VALID,1003.38,VALID,0,INVALID,163.701,VALID,0.100563,VALID,24.3052,VALID,84,VALID,0,
2011-08-13, 00:58:04,VALID,1003.34,VALID,0,INVALID,163.716,VALID,0.100563,VALID,24.3052,VALID,84,VALID,0,
2011-08-13, 00:59:04,VALID,1003.32,VALID,0,INVALID,163.716,VALID,0.100563,VALID,24.2839,VALID,84,VALID,0,
2011-08-13, 01:00:04,VALID,1003.31,VALID,0,INVALID,163.708,VALID,0,VALID,24.2857,VALID,84,VALID,0,
2011-08-13, 01:01:04,VALID,1003.27,VALID,0,INVALID,163.685,VALID,0.100563,VALID,24.2644,VALID,84,VALID,0,
2011-08-13, 01:02:04,VALID,1003.25,VALID,0,INVALID,163.716,VALID,0.100563,VALID,24.3052,VALID,84,VALID,0,
2011-08-13, 01:03:04,VALID,1003.25,VALID,0,INVALID,163.708,VALID,0.100563,VALID,24.2644,VALID,78,VALID,0,
2011-08-13, 01:04:04,VALID,1003.24,VALID,0,INVALID,163.723,VALID,0.100563,VALID,24.2857,VALID,80,VALID,0,
2011-08-13, 01:05:04,VALID,1003.25,VALID,0,INVALID,163.716,VALID,0.100563,VALID,24.2449,VALID,80,VALID,0,
2011-08-13, 01:06:04,VALID,1003.26,VALID,0,INVALID,163.723,VALID,0.100563,VALID,24.2662,VALID,80,VALID,0,
2011-08-13, 01:07:04,VALID,1003.27,VALID,0,INVALID,163.723,VALID,0.100563,VALID,24.2255,VALID,80,VALID,0,
2011-08-13, 01:08:04,VALID,1003.31,VALID,0,INVALID,163.708,VALID,0.100563,VALID,24.2468,VALID,80,VALID,0,
2011-08-13, 01:09:04,VALID,1003.31,VALID,0,INVALID,163.708,VALID,0.100563,VALID,24.2255,VALID,81,VALID,0,
2011-08-13, 01:10:04,VALID,1003.3,VALID,0,INVALID,163.701,VALID,0.100563,VALID,24.2255,VALID,91,VALID,0,
2011-08-13, 01:11:04,VALID,1003.28,VALID,0,INVALID,163.723,VALID,0.100563,VALID,24.2468,VALID,95,VALID,0,
2011-08-13, 01:12:04,VALID,1003.3,VALID,0,INVALID,163.708,VALID,0.100563,VALID,24.2662,VALID,93,VALID,0,
2011-08-13, 01:13:04,VALID,1003.28,VALID,0,INVALID,163.701,VALID,0.100563,VALID,24.2644,VALID,89,VALID,0,
2011-08-13, 01:14:04,VALID,1003.28,VALID,0,INVALID,163.685,VALID,0.100563,VALID,24.2662,VALID,89,VALID,0,
2011-08-13, 01:15:04,VALID,1003.28,VALID,0,INVALID,163.708,VALID,0,VALID,24.2875,VALID,89,VALID,0,
2011-08-13, 01:16:04,VALID,1003.24,VALID,0,INVALID,163.708,VALID,0,VALID,24.2681,VALID,89,VALID,0,
2011-08-13, 01:17:04,VALID,1003.24,VALID,0,INVALID,163.708,VALID,0,VALID,24.2486,VALID,89,VALID,0,
2011-08-13, 01:18:04,VALID,1003.23,VALID,0,INVALID,163.723,VALID,0,VALID,24.2291,VALID,89,VALID,0,
2011-08-13, 01:19:04,VALID,1003.2,VALID,0,INVALID,163.739,VALID,0,VALID,24.1902,VALID,42,VALID,0,
2011-08-13, 01:20:04,VALID,1003.22,VALID,0,INVALID,163.723,VALID,0,VALID,24.1902,VALID,83,VALID,0,
2011-08-13, 01:21:04,VALID,1003.2,VALID,0,INVALID,163.685,VALID,0,VALID,24.1902,VALID,83,VALID,0,
2011-08-13, 01:22:04,VALID,1003.19,VALID,0,INVALID,163.693,VALID,0,VALID,24.2115,VALID,83,VALID,0,
2011-08-13, 01:23:04,VALID,1003.19,VALID,0,INVALID,163.701,VALID,0,VALID,24.1513,VALID,83,VALID,0,
2011-08-13, 01:24:04,VALID,1003.21,VALID,0,INVALID,163.708,VALID,0,VALID,24.1318,VALID,79,VALID,0,
2011-08-13, 01:25:04,VALID,1003.2,VALID,0,INVALID,163.708,VALID,0,VALID,24.0929,VALID,79,VALID,0,
2011-08-13, 01:26:04,VALID,1003.18,VALID,0,INVALID,163.716,VALID,0,VALID,24.0734,VALID,79,VALID,0,
2011-08-13, 01:27:04,VALID,1003.21,VALID,0,INVALID,163.739,VALID,0,VALID,24.0539,VALID,79,VALID,0,
2011-08-13, 01:28:04,VALID,1003.21,VALID,0,INVALID,163.708,VALID,0,VALID,24.0326,VALID,79,VALID,0,
2011-08-13, 01:29:04,VALID,1003.21,VALID,0,INVALID,163.716,VALID,0,VALID,24.0345,VALID,79,VALID,0,
2011-08-13, 01:30:04,VALID,1003.23,VALID,0,INVALID,163.731,VALID,0,VALID,24.0326,VALID,79,VALID,0,
2011-08-13, 01:31:04,VALID,1003.26,VALID,0,INVALID,163.716,VALID,0.100563,VALID,24.0326,VALID,79,VALID,0,
2011-08-13, 01:32:04,VALID,1003.25,VALID,0,INVALID,163.784,VALID,0.100563,VALID,24.0345,VALID,79,VALID,0,
2011-08-13, 01:33:04,VALID,1003.26,VALID,0,INVALID,163.701,VALID,0,VALID,23.9724,VALID,79,VALID,0,
2011-08-13, 01:34:04,VALID,1003.26,VALID,0,INVALID,163.731,VALID,0.100563,VALID,24.0132,VALID,79,VALID,0,
2011-08-13, 01:35:04,VALID,1003.25,VALID,0,INVALID,163.792,VALID,0,VALID,24.0326,VALID,79,VALID,0,
2011-08-13, 01:36:04,VALID,1003.25,VALID,0,INVALID,163.723,VALID,0,VALID,24.0326,VALID,79,VALID,0,
2011-08-13, 01:37:04,VALID,1003.23,VALID,0,INVALID,163.708,VALID,0,VALID,24.0132,VALID,79,VALID,0,
2011-08-13, 01:38:04,VALID,1003.2,VALID,0,INVALID,163.792,VALID,0,VALID,24.0326,VALID,68,VALID,0,
2011-08-13, 01:39:04,VALID,1003.19,VALID,0,INVALID,163.739,VALID,0,VALID,24.0326,VALID,68,VALID,0,
2011-08-13, 01:40:04,VALID,1003.2,VALID,0,INVALID,163.685,VALID,0,VALID,24.0326,VALID,60,VALID,0,
2011-08-13, 01:41:04,VALID,1003.19,VALID,0,INVALID,163.731,VALID,0,VALID,24.0345,VALID,60,VALID,0,
2011-08-13, 01:42:04,VALID,1003.21,VALID,0,INVALID,163.731,VALID,0,VALID,23.9937,VALID,60,VALID,0,
2011-08-13, 01:43:04,VALID,1003.16,VALID,0,INVALID,163.731,VALID,0,VALID,23.9937,VALID,60,VALID,0,
2011-08-13, 01:44:04,VALID,1003.17,VALID,0,INVALID,163.716,VALID,0,VALID,23.9742,VALID,60,VALID,0,
2011-08-13, 01:45:05,VALID,1003.17,VALID,0,INVALID,163.723,VALID,0.100563,VALID,23.9742,VALID,60,VALID,0,
2011-08-13, 01:46:05,VALID,1003.16,VALID,0,INVALID,163.723,VALID,0,VALID,23.9548,VALID,60,VALID,0,
2011-08-13, 01:47:05,VALID,1003.16,VALID,0,INVALID,163.731,VALID,0,VALID,23.9566,VALID,60,VALID,0,
2011-08-13, 01:48:05,VALID,1003.16,VALID,0,INVALID,163.754,VALID,0,VALID,23.9353,VALID,60,VALID,0,
2011-08-13, 01:49:05,VALID,1003.13,VALID,0,INVALID,163.754,VALID,0,VALID,23.9159,VALID,59,VALID,0,
2011-08-13, 01:50:05,VALID,1003.14,VALID,0,INVALID,163.716,VALID,0,VALID,23.9159,VALID,59,VALID,0,
2011-08-13, 01:51:05,VALID,1003.12,VALID,0,INVALID,163.723,VALID,0,VALID,23.9371,VALID,59,VALID,0,
2011-08-13, 01:52:05,VALID,1003.15,VALID,0,INVALID,163.754,VALID,0.100563,VALID,23.9353,VALID,59,VALID,0,
2011-08-13, 01:53:05,VALID,1003.11,VALID,0,INVALID,163.762,VALID,0,VALID,23.9353,VALID,59,VALID,0,
2011-08-13, 01:54:05,VALID,1003.11,VALID,0,INVALID,163.716,VALID,0,VALID,23.9353,VALID,59,VALID,0,
2011-08-13, 01:55:05,VALID,1003.13,VALID,0,INVALID,163.746,VALID,0,VALID,23.9548,VALID,59,VALID,0,
2011-08-13, 01:56:05,VALID,1003.13,VALID,0,INVALID,163.739,VALID,0,VALID,23.9548,VALID,59,VALID,0,
2011-08-13, 01:57:05,VALID,1003.08,VALID,0,INVALID,163.716,VALID,0,VALID,23.9335,VALID,59,VALID,0,
2011-08-13, 01:58:05,VALID,1003.08,VALID,0,INVALID,163.723,VALID,0,VALID,23.9353,VALID,59,VALID,0,
2011-08-13, 01:59:05,VALID,1003.05,VALID,0,INVALID,163.716,VALID,0.100563,VALID,23.9548,VALID,59,VALID,0,
2011-08-13, 02:00:05,VALID,1003.05,VALID,0,INVALID,163.693,VALID,0,VALID,23.9548,VALID,59,VALID,0,
2011-08-13, 02:01:05,VALID,1003.05,VALID,0,INVALID,163.731,VALID,0,VALID,23.9548,VALID,59,VALID,0,
2011-08-13, 02:02:05,VALID,1003.04,VALID,0,INVALID,163.716,VALID,0,VALID,23.9353,VALID,59,VALID,0,
2011-08-13, 02:03:05,VALID,1003.05,VALID,0,INVALID,163.762,VALID,0,VALID,23.9548,VALID,59,VALID,0,
2011-08-13, 02:04:05,VALID,1003.04,VALID,0,INVALID,163.739,VALID,0,VALID,23.9548,VALID,59,VALID,0,
2011-08-13, 02:05:05,VALID,1003.05,VALID,0,INVALID,163.723,VALID,0,VALID,23.9761,VALID,59,VALID,0,
2011-08-13, 02:06:05,VALID,1003.06,VALID,0,INVALID,163.731,VALID,0,VALID,23.9548,VALID,59,VALID,0,
2011-08-13, 02:07:05,VALID,1003.05,VALID,0,INVALID,163.731,VALID,0,VALID,23.9548,VALID,59,VALID,0,
2011-08-13, 02:08:05,VALID,1003.05,VALID,0,INVALID,163.708,VALID,0,VALID,23.9548,VALID,59,VALID,0,
2011-08-13, 02:09:05,VALID,1003.06,VALID,0,INVALID,163.739,VALID,0.100563,VALID,23.9548,VALID,59,VALID,0,
2011-08-13, 02:10:05,VALID,1003.04,VALID,0,INVALID,163.746,VALID,0,VALID,23.9353,VALID,59,VALID,0,
2011-08-13, 02:11:05,VALID,1003.07,VALID,0,INVALID,163.731,VALID,0,VALID,23.9159,VALID,59,VALID,0,
2011-08-13, 02:12:05,VALID,1003.04,VALID,0,INVALID,163.754,VALID,0,VALID,23.9371,VALID,59,VALID,0,
2011-08-13, 02:13:05,VALID,1003.05,VALID,0,INVALID,163.746,VALID,0,VALID,23.8964,VALID,59,VALID,0,
2011-08-13, 02:14:05,VALID,1003.04,VALID,0,INVALID,163.769,VALID,0.100563,VALID,23.8964,VALID,59,VALID,0,
2011-08-13, 02:15:05,VALID,1003.03,VALID,0,INVALID,163.723,VALID,0,VALID,23.9159,VALID,59,VALID,0,
2011-08-13, 02:16:05,VALID,1003.07,VALID,0,INVALID,163.762,VALID,0.100563,VALID,23.8964,VALID,59,VALID,0,
2011-08-13, 02:17:05,VALID,1003.04,VALID,0,INVALID,163.739,VALID,0.100563,VALID,23.8769,VALID,59,VALID,0,
2011-08-13, 02:18:05,VALID,1003.07,VALID,0,INVALID,163.746,VALID,0,VALID,23.8769,VALID,54,VALID,0,
2011-08-13, 02:19:05,VALID,1003.05,VALID,0,INVALID,163.731,VALID,0,VALID,23.8769,VALID,49,VALID,0,
2011-08-13, 02:20:05,VALID,1003.09,VALID,0,INVALID,163.746,VALID,0,VALID,23.8575,VALID,49,VALID,0,
2011-08-13, 02:21:05,VALID,1003.07,VALID,0,INVALID,163.754,VALID,0,VALID,23.8787,VALID,49,VALID,0,
2011-08-13, 02:22:05,VALID,1003.06,VALID,0,INVALID,163.746,VALID,0,VALID,23.8787,VALID,49,VALID,0,
2011-08-13, 02:23:05,VALID,1003.08,VALID,0,INVALID,163.731,VALID,0,VALID,23.8593,VALID,49,VALID,0,
2011-08-13, 02:24:05,VALID,1003.05,VALID,0,INVALID,163.754,VALID,0,VALID,23.8398,VALID,49,VALID,0,
2011-08-13, 02:25:05,VALID,1003.05,VALID,0,INVALID,163.739,VALID,0.100563,VALID,23.8203,VALID,49,VALID,0,
2011-08-13, 02:26:05,VALID,1003.08,VALID,0,INVALID,163.746,VALID,0,VALID,23.7991,VALID,49,VALID,0,
2011-08-13, 02:27:05,VALID,1003.07,VALID,0,INVALID,163.754,VALID,0,VALID,23.7991,VALID,49,VALID,0,
2011-08-13, 02:28:05,VALID,1003.04,VALID,0,INVALID,163.762,VALID,0.100563,VALID,23.7601,VALID,49,VALID,0,
2011-08-13, 02:29:05,VALID,1003.06,VALID,0,INVALID,163.731,VALID,0,VALID,23.7619,VALID,49,VALID,0,
2011-08-13, 02:30:05,VALID,1003.06,VALID,0,INVALID,163.731,VALID,0.100563,VALID,23.7194,VALID,49,VALID,0,
2011-08-13, 02:31:05,VALID,1003.02,VALID,0,INVALID,163.762,VALID,0.100563,VALID,23.6805,VALID,46,VALID,0,
2011-08-13, 02:32:05,VALID,1003.06,VALID,0,INVALID,163.746,VALID,0,VALID,23.7017,VALID,46,VALID,0,
2011-08-13, 02:33:05,VALID,1003.03,VALID,0,INVALID,163.762,VALID,0,VALID,23.7017,VALID,45,VALID,0,
2011-08-13, 02:34:05,VALID,1003,VALID,0,INVALID,163.739,VALID,0,VALID,23.661,VALID,45,VALID,0,
2011-08-13, 02:35:05,VALID,1003.04,VALID,0,INVALID,163.731,VALID,0,VALID,23.6823,VALID,45,VALID,0,
2011-08-13, 02:36:05,VALID,1003.04,VALID,0,INVALID,163.731,VALID,0,VALID,23.7017,VALID,45,VALID,0,
2011-08-13, 02:37:05,VALID,1003.04,VALID,0,INVALID,163.754,VALID,0,VALID,23.6823,VALID,45,VALID,0,
2011-08-13, 02:38:05,VALID,1003.02,VALID,0,INVALID,163.762,VALID,0,VALID,23.6628,VALID,45,VALID,0,
2011-08-13, 02:39:05,VALID,1003.02,VALID,0,INVALID,163.762,VALID,0,VALID,23.6434,VALID,45,VALID,0,
2011-08-13, 02:40:05,VALID,1003.03,VALID,0,INVALID,163.739,VALID,0,VALID,23.6239,VALID,45,VALID,0,
2011-08-13, 02:41:05,VALID,1003.02,VALID,0,INVALID,163.762,VALID,0,VALID,23.6026,VALID,45,VALID,0,
2011-08-13, 02:42:05,VALID,1003.07,VALID,0,INVALID,163.762,VALID,0,VALID,23.6044,VALID,45,VALID,0,
2011-08-13, 02:43:05,VALID,1003.03,VALID,0,INVALID,163.754,VALID,0,VALID,23.6239,VALID,45,VALID,0,
2011-08-13, 02:44:05,VALID,1003.08,VALID,0,INVALID,163.762,VALID,0,VALID,23.6239,VALID,45,VALID,0,
2011-08-13, 02:45:05,VALID,1003.07,VALID,0,INVALID,163.746,VALID,0,VALID,23.6044,VALID,45,VALID,0,
2011-08-13, 02:46:05,VALID,1003.07,VALID,0,INVALID,163.762,VALID,0,VALID,23.585,VALID,45,VALID,0,
2011-08-13, 02:47:05,VALID,1003.09,VALID,0,INVALID,163.746,VALID,0,VALID,23.5832,VALID,45,VALID,0,
2011-08-13, 02:48:05,VALID,1003.09,VALID,0,INVALID,163.754,VALID,0,VALID,23.5832,VALID,45,VALID,0,
2011-08-13, 02:49:05,VALID,1003.11,VALID,0,INVALID,163.762,VALID,0,VALID,23.6026,VALID,45,VALID,0,
2011-08-13, 02:50:05,VALID,1003.1,VALID,0,INVALID,163.746,VALID,0,VALID,23.6026,VALID,45,VALID,0,
2011-08-13, 02:51:05,VALID,1003.1,VALID,0,INVALID,163.784,VALID,0,VALID,23.6239,VALID,45,VALID,0,
2011-08-13, 02:52:05,VALID,1003.1,VALID,0,INVALID,163.754,VALID,0.100563,VALID,23.5832,VALID,45,VALID,0,
2011-08-13, 02:53:05,VALID,1003.07,VALID,0,INVALID,163.754,VALID,0,VALID,23.6239,VALID,45,VALID,0,
2011-08-13, 02:54:05,VALID,1003.04,VALID,0,INVALID,163.723,VALID,0,VALID,23.6434,VALID,45,VALID,0,
2011-08-13, 02:55:05,VALID,1003.07,VALID,0,INVALID,163.754,VALID,0,VALID,23.6239,VALID,45,VALID,0,
2011-08-13, 02:56:05,VALID,1003.05,VALID,0,INVALID,163.769,VALID,0,VALID,23.6434,VALID,45,VALID,0,
2011-08-13, 02:57:05,VALID,1003.05,VALID,0,INVALID,163.754,VALID,0,VALID,23.6221,VALID,45,VALID,0,
2011-08-13, 02:58:05,VALID,1003.03,VALID,0,INVALID,163.762,VALID,0,VALID,23.6416,VALID,45,VALID,0,
2011-08-13, 02:59:05,VALID,1003.05,VALID,0,INVALID,163.739,VALID,0,VALID,23.6628,VALID,45,VALID,0,
2011-08-13, 03:00:05,VALID,1003.02,VALID,0,INVALID,163.762,VALID,0,VALID,23.6646,VALID,43,VALID,0,
2011-08-13, 03:01:05,VALID,1003.01,VALID,0,INVALID,163.746,VALID,0,VALID,23.6841,VALID,36,VALID,0,
2011-08-13, 03:02:05,VALID,1003,VALID,0,INVALID,163.723,VALID,0,VALID,23.6823,VALID,36,VALID,0,
2011-08-13, 03:03:05,VALID,1003,VALID,0,INVALID,163.807,VALID,0,VALID,23.7017,VALID,37,VALID,0,
2011-08-13, 03:04:05,VALID,1002.99,VALID,0,INVALID,163.762,VALID,0,VALID,23.7425,VALID,53,VALID,0,
2011-08-13, 03:05:05,VALID,1002.98,VALID,0,INVALID,163.777,VALID,0,VALID,23.8009,VALID,27,VALID,0,
2011-08-13, 03:06:05,VALID,1003,VALID,0,INVALID,163.739,VALID,0,VALID,23.8185,VALID,27,VALID,0,
2011-08-13, 03:07:05,VALID,1003,VALID,0,INVALID,163.739,VALID,0,VALID,23.838,VALID,27,VALID,0,
2011-08-13, 03:08:05,VALID,1003,VALID,0,INVALID,163.723,VALID,0,VALID,23.8787,VALID,27,VALID,0,
2011-08-13, 03:09:05,VALID,1002.98,VALID,0,INVALID,163.723,VALID,0,VALID,23.8575,VALID,27,VALID,0,
2011-08-13, 03:10:05,VALID,1003,VALID,0,INVALID,163.754,VALID,0,VALID,23.8787,VALID,27,VALID,0,
2011-08-13, 03:11:05,VALID,1002.98,VALID,0,INVALID,163.754,VALID,0,VALID,23.8593,VALID,27,VALID,0,
2011-08-13, 03:12:05,VALID,1003.03,VALID,0,INVALID,163.716,VALID,0,VALID,23.8982,VALID,19,VALID,0,
2011-08-13, 03:13:05,VALID,1002.99,VALID,0,INVALID,163.746,VALID,0,VALID,23.8982,VALID,34,VALID,0,
2011-08-13, 03:14:05,VALID,1003.01,VALID,0,INVALID,163.731,VALID,0,VALID,23.8575,VALID,39,VALID,0,
2011-08-13, 03:15:05,VALID,1003.03,VALID,0,INVALID,163.739,VALID,0,VALID,23.8575,VALID,45,VALID,0,
2011-08-13, 03:16:05,VALID,1003.05,VALID,0,INVALID,163.746,VALID,0,VALID,23.838,VALID,45,VALID,0,
2011-08-13, 03:17:05,VALID,1003.02,VALID,0,INVALID,163.762,VALID,0,VALID,23.838,VALID,45,VALID,0,
2011-08-13, 03:18:05,VALID,1003.04,VALID,0,INVALID,163.746,VALID,0,VALID,23.8611,VALID,45,VALID,0,
2011-08-13, 03:19:05,VALID,1003.04,VALID,0,INVALID,163.739,VALID,0,VALID,23.8203,VALID,45,VALID,0,
2011-08-13, 03:20:05,VALID,1003.05,VALID,0,INVALID,163.746,VALID,0,VALID,23.8009,VALID,45,VALID,0,
2011-08-13, 03:21:05,VALID,1003.03,VALID,0,INVALID,163.769,VALID,0,VALID,23.7601,VALID,45,VALID,0,
2011-08-13, 03:22:05,VALID,1003.01,VALID,0,INVALID,163.754,VALID,0,VALID,23.7407,VALID,44,VALID,0,
2011-08-13, 03:23:05,VALID,1003.06,VALID,0,INVALID,163.754,VALID,0,VALID,23.7407,VALID,42,VALID,0,
2011-08-13, 03:24:05,VALID,1003.06,VALID,0,INVALID,163.754,VALID,0,VALID,23.7425,VALID,42,VALID,0,
2011-08-13, 03:25:05,VALID,1003.08,VALID,0,INVALID,163.731,VALID,0,VALID,23.7212,VALID,42,VALID,0,
2011-08-13, 03:26:05,VALID,1003.1,VALID,0,INVALID,163.746,VALID,0,VALID,23.7212,VALID,42,VALID,0,
2011-08-13, 03:27:05,VALID,1003.1,VALID,0,INVALID,163.746,VALID,0,VALID,23.7017,VALID,42,VALID,0,
2011-08-13, 03:28:05,VALID,1003.09,VALID,0,INVALID,163.769,VALID,0,VALID,23.723,VALID,19,VALID,0,
2011-08-13, 03:29:05,VALID,1003.11,VALID,0,INVALID,163.716,VALID,0,VALID,23.7212,VALID,19,VALID,0,
2011-08-13, 03:30:05,VALID,1003.12,VALID,0,INVALID,163.746,VALID,0,VALID,23.7619,VALID,19,VALID,0,
2011-08-13, 03:31:05,VALID,1003.13,VALID,0,INVALID,163.739,VALID,0,VALID,23.7814,VALID,15,VALID,0,
2011-08-13, 03:32:05,VALID,1003.06,VALID,0,INVALID,163.723,VALID,0,VALID,23.8203,VALID,8,VALID,0,
2011-08-13, 03:33:05,VALID,1003.11,VALID,0,INVALID,163.716,VALID,0,VALID,23.9159,VALID,17,VALID,0,
2011-08-13, 03:34:05,VALID,1003.09,VALID,0,INVALID,163.739,VALID,0,VALID,24.015,VALID,17,VALID,0,
2011-08-13, 03:35:05,VALID,1003.1,VALID,0,INVALID,163.716,VALID,0,VALID,24.015,VALID,17,VALID,0,
2011-08-13, 03:36:05,VALID,1003.11,VALID,0,INVALID,163.723,VALID,0,VALID,23.9937,VALID,17,VALID,0,
2011-08-13, 03:37:05,VALID,1003.13,VALID,0,INVALID,163.716,VALID,0,VALID,23.9742,VALID,17,VALID,0,
2011-08-13, 03:38:05,VALID,1003.14,VALID,0,INVALID,163.769,VALID,0,VALID,23.9955,VALID,17,VALID,0,
2011-08-13, 03:39:05,VALID,1003.14,VALID,0,INVALID,163.739,VALID,0,VALID,23.9742,VALID,17,VALID,0,
2011-08-13, 03:40:05,VALID,1003.12,VALID,0,INVALID,163.723,VALID,0,VALID,23.9973,VALID,17,VALID,0,
2011-08-13, 03:41:05,VALID,1003.15,VALID,0,INVALID,163.716,VALID,0,VALID,23.9761,VALID,17,VALID,0,
2011-08-13, 03:42:05,VALID,1003.14,VALID,0,INVALID,163.739,VALID,0,VALID,23.9353,VALID,17,VALID,0,
2011-08-13, 03:43:05,VALID,1003.15,VALID,0,INVALID,163.8,VALID,0,VALID,23.9566,VALID,17,VALID,0,
2011-08-13, 03:44:05,VALID,1003.13,VALID,0,INVALID,163.792,VALID,0,VALID,23.9937,VALID,28,VALID,0,
2011-08-13, 03:45:05,VALID,1003.15,VALID,0,INVALID,163.716,VALID,0.100563,VALID,24.0326,VALID,28,VALID,0,
2011-08-13, 03:46:05,VALID,1003.16,VALID,0,INVALID,163.739,VALID,0,VALID,24.1105,VALID,16,VALID,0,
2011-08-13, 03:47:05,VALID,1003.16,VALID,0,INVALID,163.746,VALID,0,VALID,24.1689,VALID,26,VALID,0,
2011-08-13, 03:48:05,VALID,1003.17,VALID,0,INVALID,163.731,VALID,0.100563,VALID,24.2078,VALID,34,VALID,0,
2011-08-13, 03:49:05,VALID,1003.16,VALID,0,INVALID,163.716,VALID,0,VALID,24.2468,VALID,26,VALID,0,
2011-08-13, 03:50:05,VALID,1003.16,VALID,0,INVALID,163.685,VALID,0,VALID,24.2839,VALID,26,VALID,0,
2011-08-13, 03:51:05,VALID,1003.18,VALID,0,INVALID,163.762,VALID,0,VALID,24.3052,VALID,20,VALID,0,
2011-08-13, 03:52:05,VALID,1003.2,VALID,0,INVALID,163.708,VALID,0.100563,VALID,24.3246,VALID,22,VALID,0,
2011-08-13, 03:53:05,VALID,1003.21,VALID,0,INVALID,163.723,VALID,0.100563,VALID,24.3246,VALID,21,VALID,0,